Location: *
(45.5667°S, 177.5167°W)
Time: 23:25:49
(UTC+00:00)

SeaSat 1 - Pass Details

Date: 29 May 2022
Orbit: 743 x 747 km, 108.0° (Epoch: 24 June)

Event Time Altitude Azimuth Distance (km) Brightness Sun altitude
Rises 04:59:33 0° 158° (SSE) 3,225 5.3 -7.4°
Reaches altitude 10° 05:01:55 10° 165° (SSE) 2,294 4.6 -7.7°
Maximum altitude 05:06:36 42° 234° (SW) 1,077 3.6 -8.5°
Drops below altitude 10° 05:11:14 10° 303° (WNW) 2,271 6.5 -9.2°
Sets 05:13:35 0° 310° (NW) 3,188 7.3 -9.6°
